Torna al catalogo

QIANFAN-26

AttivoComunicazioniPO
NORAD 61559·PAYLOAD·🇨🇳 China

Lanciato Oct 15, 2024 da Taiyuan Satellite Launch Center

Loading…

Prossimi Passaggi (prossime 24 ore)

TLE

AggiornatoSource: Space-Track

Epoca: Sep 14, 2026, 22:04 UTC

1 61559U 24185H   26257.91948347  .00000216  00000-0  20256-3 0  9990
2 61559  88.9827  49.9415 0003891 247.9319 112.1434 13.77943326106703

Traccia QIANFAN-26 in tempo reale con AllMySat

Download on the App Store